Probability
0 0 0 0 0 0 0 0 0 0 0 0 1 2 2 1 0 0 0 0 0 0 0 0 0 0 0 0 0 0 0 0 0 0 0 0 0 0
0 0 0 0 0 0 0 0 0 0 0 0 1 3 3 1 0 0 0 0 0 0 0 0 0 0 0 0 0 0 0 0 0 0 0 0 0 0
0 0 0 0 0 0 0 0 0 0 0 0 1 2 2 1 0 0 0 0 0 0 0 0 0 0 0 0 0 0 0 0 0 0 0 0 0 0
0 0 0 0 0 0 0 0 0 0 0 0 1 1 1 1 0 0 0 0 0 0 0 0 0 0 0 0 0 0 0 0 0 0 0 0 0 0
0 0 0 0 0 0 0 0 0 0 0 0 0 0 0 0 0 0 0 0 0 0 0 0 0 0 0 0 0 0 0 0 0 0 0 0 0 0
0 0 0 0 0 0 0 0 0 0 0 0 0 0 0 0 0 0 0 0 0 0 0 0 0 0 0 0 0 0 0 0 0 0 0 0 0 0
0 0 0 0 0 0 0 0 0 0 0 0 0 0 0 0 0 0 0 0 0 0 0 0 0 0 0 0 0 0 0 0 0 0 0 0 0 0
0 0 0 0 0 0 0 0 0 0 0 0 0 0 0 0 0 0 0 0 0 0 0 0 0 0 0 0 0 0 0 0 0 0 0 0 0 0
0 0 0 0 0 0 0 0 0 0 0 0 0 0 0 0 0 0 0 0 0 0 0 0 0 0 0 0 0 0 0 0 0 0 0 0 0 0
0 0 0 0 0 0 0 0 0 0 0 0 0 0 0 0 0 0 0 0 0 0 0 0 0 0 0 0 0 0 0 0 0 0 0 0 0 0
0 0 0 0 0 0 0 0 0 0 0 0 0 0 0 0 0 0 0 0 0 0 0 0 0 0 0 0 0 0 0 0 0 0 0 0 0 0
0 0 0 0 0 0 0 0 0 0 0 0 0 0 0 0 0 0 0 0 0 0 0 0 0 0 0 0 0 0 0 0 0 0 0 0 0 0
0 0 0 0 0 0 0 0 0 0 0 0 0 0 0 0 0 0 0 0 0 0 0 0 0 0 0 0 0 0 0 0 0 0 0 0 0 0
0 0 0 0 0 0 0 0 0 0 0 0 0 0 0 0 0 0 0 0 0 0 0 0 0 0 0 0 0 0 0 0 0 0 0 0 0 0
0 0 0 0 0 0 0 0 0 0 0 0 0 0 0 0 0 0 0 0 0 0 0 0 0 0 0 0 0 0 0 0 0 0 0 0 0 0
0 0 0 0 0 0 0 0 0 0 0 0 0 0 0 0 0 0 0 0 0 0 0 0 0 0 0 0 0 0 0 0 0 0 0 0 0 0
0 0 0 0 0 0 0 0 0 0 0 0 0 0 0 0 0 0 0 0 0 0 0 0 0 0 0 0 0 0 0 0 0 0 0 0 0 0
0 0 0 0 0 0 0 0 0 0 0 0 0 0 0 0 0 0 0 0 0 0 0 0 0 0 0 0 0 0 0 0 0 0 0 0 0 0
0 0 0 0 0 0 0 0 0 0 0 0 0 0 0 0 0 0 0 0 0 0 0 0 0 0 0 0 0 0 0 0 0 0 0 0 0 0
0 0 0 0 0 0 0 0 0 0 0 0 0 0 0 0 0 0 0 0 0 0 0 0 0 0 0 0 0 0 0 0 0 0 0 0 0 0
0 0 0 0 0 0 0 0 0 0 0 0 0 0 0 0 0 0 0 0 0 0 0 0 0 0 0 0 0 0 0 0 0 0 0 0 0 0
0 0 0 0 0 0 0 0 0 0 0 0 0 0 0 0 0 0 0 0 0 0 0 0 0 0 0 0 0 0 0 0 0 0 0 0 0 0
0 0 0 0 0 0 0 0 0 0 0 0 0 0 0 0 0 0 0 0 0 0 0 0 0 0 0 0 0 0 0 0 0 0 0 0 0 0
Wind_Speed
3 2 2 2 2 2 2 2 3 3 3 3 2 1 1 1 3 2 2 5 7 7 7 7 7 7 7 7 7 7 7 7 8 8 8 8 9 9
2 2 3 2 2 2 2 2 2 3 4 2 2 1 1 2 4 2 3 6 7 8 8 8 8 8 8 7 7 8 8 8 8 9 9 9 9 10
3 3 3 3 2 2 2 2 2 2 4 3 1 1 1 2 3 2 3 3 4 8 9 9 9 9 9 8 8 8 8 9 9 9 9 9 9 10
4 4 4 3 3 3 2 3 3 3 3 4 2 2 3 3 3 3 3 4 3 7 10 10 10 10 9 9 9 9 9 9 9 10 10 10 10 10
4 4 4 4 4 3 3 3 2 3 2 3 3 2 2 2 2 3 4 3 4 5 8 10 10 10 10 10 10 10 10 10 10 10 10 11 11 11
4 4 4 5 5 4 3 3 3 2 2 3 3 2 2 2 2 2 3 3 4 4 6 7 9 10 11 11 11 11 11 11 11 11 11 11 11 11
4 5 5 5 6 5 4 3 3 3 3 3 3 3 3 2 3 2 3 3 4 3 3 4 4 4 6 9 11 11 11 12 12 11 11 11 11 11
5 5 4 5 6 7 8 7 6 5 5 4 4 5 5 3 3 3 3 3 4 2 2 5 3 4 4 4 9 11 11 11 11 11 12 12 12 12
4 4 4 4 5 4 5 7 7 8 8 5 5 6 5 4 3 4 4 4 5 3 3 5 3 4 4 5 10 12 11 11 11 11 11 12 12 12
4 4 4 4 4 4 3 3 3 4 5 5 5 5 5 4 4 4 4 4 4 3 3 4 3 4 5 4 9 10 10 10 11 11 12 12 12 13
3 3 4 4 6 7 4 4 4 3 5 6 7 7 8 8 6 3 3 4 5 4 2 3 3 4 4 4 5 8 9 10 11 11 12 12 12 12
3 3 5 6 7 7 4 4 4 4 3 3 4 5 4 5 7 5 4 4 4 4 3 2 2 2 4 3 2 3 4 8 11 11 12 12 12 7
3 3 3 7 7 7 5 4 6 5 3 3 3 3 3 2 3 3 3 4 5 5 3 1 2 2 3 5 3 3 3 3 4 6 8 11 12 10
3 3 3 6 7 6 5 5 6 5 3 2 3 3 3 3 3 3 4 4 5 6 5 4 3 3 4 5 5 3 3 3 4 4 4 8 10 12
2 5 5 6 5 4 5 5 4 3 2 3 3 3 3 3 3 3 3 3 4 4 4 5 4 4 4 5 5 5 5 4 4 3 4 4 5 4
2 3 4 4 3 3 3 3 2 2 3 3 3 2 2 2 3 3 3 3 3 3 3 4 4 4 5 5 5 6 5 4 4 4 4 5 5 4
1 0 1 1 1 1 1 1 1 2 2 2 2 2 2 3 3 2 3 2 3 3 3 3 3 3 5 5 5 6 5 5 5 5 4 5 5 5
1 1 1 1 2 2 2 2 2 2 2 2 2 2 3 3 3 3 3 3 3 3 3 3 2 3 3 4 6 5 4 4 4 4 4 5 6 5
1 1 2 2 2 2 2 2 2 2 1 2 2 2 3 3 3 3 3 3 4 4 3 3 2 3 4 6 4 5 4 4 4 5 4 5 6 6
1 1 2 1 1 2 2 2 2 1 1 2 2 2 2 3 3 3 3 4 4 4 4 3 3 4 5 5 5 5 6 5 4 5 5 5 5 8
1 1 1 1 2 2 2 2 2 2 2 2 2 3 3 3 3 3 4 6 5 4 4 4 4 6 4 2 4 4 4 5 7 6 5 5 5 5
2 2 2 2 2 2 2 2 2 2 2 2 2 2 3 3 3 4 4 4 4 4 4 4 3 3 3 4 5 5 5 5 6 9 9 8 5 5
2 2 2 2 2 2 2 2 3 3 3 2 2 3 3 3 3 3 3 3 4 4 4 4 3 2 3 4 4 5 6 6 4 4 5 8 10 12
Wind_Direction
223 217 224 237 225 224 225 210 203 239 258 237 235 247 250 244 248 245 254 271 275 277 274 268 274 278 280 283 286 289 293 295 294 293 290 294 292 289
230 224 231 236 233 227 228 238 223 219 253 243 234 251 253 269 268 267 257 270 270 275 278 267 267 270 273 276 280 284 287 288 288 288 288 287 291 288
238 234 239 236 230 231 229 234 237 223 250 267 259 254 253 257 277 270 265 258 261 271 275 270 264 266 268 271 274 278 281 283 284 284 284 283 284 287
230 232 238 240 239 236 229 233 239 232 234 258 264 253 252 244 257 263 272 265 259 270 271 275 265 264 265 267 269 274 277 279 280 281 282 281 281 280
228 228 231 229 234 235 229 231 242 252 244 247 261 259 264 259 267 273 276 277 274 276 273 276 267 264 265 268 270 272 274 274 274 276 278 278 278 280
239 234 232 232 228 224 228 229 234 240 244 246 259 258 259 262 258 263 279 274 279 283 275 278 270 267 267 269 269 270 270 271 271 273 275 275 276 278
249 243 241 240 237 233 236 228 223 229 238 243 252 260 255 245 251 258 271 283 276 266 283 283 277 263 261 264 265 265 267 269 272 273 276 275 274 275
245 242 240 235 236 240 247 247 237 230 230 236 247 246 249 252 259 265 273 283 276 270 289 286 276 262 260 254 265 267 267 269 271 272 274 275 273 274
242 243 246 240 236 233 246 252 253 252 244 238 243 249 252 251 252 258 258 265 268 271 282 275 268 270 262 268 273 271 268 269 272 275 276 276 275 275
245 244 240 235 234 234 234 244 250 257 254 248 242 251 253 249 246 251 257 275 282 272 258 268 274 274 282 269 270 271 275 276 277 279 280 280 280 280
252 250 246 236 240 240 232 236 250 264 272 265 258 261 266 268 266 268 262 263 275 271 246 249 272 285 280 270 266 270 279 282 282 283 283 284 286 285
251 247 251 249 243 242 228 219 238 251 254 267 267 270 270 266 264 249 243 252 266 271 238 236 271 304 297 274 259 268 275 280 283 284 285 285 286 284
247 245 248 254 250 247 244 230 240 248 240 245 253 256 259 257 256 250 243 243 249 257 254 254 265 271 267 292 291 271 263 274 280 278 282 286 286 284
244 241 243 251 252 251 253 252 251 252 238 236 245 251 254 259 260 256 255 255 251 255 252 243 252 250 264 280 284 285 273 267 267 271 272 284 285 284
259 254 252 250 252 255 260 263 255 239 222 231 241 248 249 253 258 262 263 267 270 267 256 249 249 251 251 263 274 283 291 282 265 264 273 276 270 273
284 270 272 266 272 265 259 264 261 239 230 229 241 250 252 253 252 256 260 265 271 276 270 258 251 245 257 263 266 275 274 275 279 276 278 278 274 263
263 205 255 252 252 259 255 253 258 258 247 233 235 245 255 260 264 258 247 248 252 267 280 275 264 259 253 252 261 263 269 273 275 276 279 279 273 265
271 218 235 237 242 246 244 248 249 252 250 238 233 242 249 256 266 269 261 254 257 261 267 271 277 287 285 267 241 256 265 269 280 280 278 281 280 275
261 239 236 233 248 252 251 251 256 254 253 253 249 243 249 255 260 263 265 263 260 263 261 253 248 253 272 281 274 238 259 274 284 283 275 272 276 281
240 243 243 241 248 254 257 259 262 258 256 256 256 252 249 254 261 260 261 262 266 269 270 259 244 241 248 262 278 283 266 264 271 278 279 281 277 283
263 257 251 248 249 254 256 255 255 256 257 257 258 257 251 253 260 261 260 264 267 261 264 267 263 276 273 266 273 278 278 275 279 277 281 285 290 286
275 270 258 252 249 249 248 244 248 255 255 256 261 264 260 256 259 261 260 261 262 261 267 273 271 269 259 255 265 277 288 295 293 290 284 275 274 272
279 284 276 262 252 249 248 249 251 254 256 256 260 266 263 262 264 262 264 262 265 267 271 276 277 268 265 259 264 274 285 293 295 300 294 294 289 284